Radiation Dose at Monitoring Post of Fukushima Daini Nuclear Power Station
Date,Time,MP-1(microSv/h),MP-2(microSv/h),MP-3(microSv/h),MP-4(microSv/h),MP-5(microSv/h),MP-6(microSv/h),MP-7(microSv/h),Wind Direction,Wind Velocity(m/s),Rain
2019/03/04,00:00,0.211,0.189,0.305,0.285,0.272,0.155,0.094,-,CALM,Yes
2019/03/04,00:10,0.211,0.191,0.306,0.286,0.272,0.156,0.094,north-northwest,1.1,Yes
2019/03/04,00:20,0.213,0.190,0.304,0.286,0.273,0.155,0.094,north-northwest,0.7,No
2019/03/04,00:30,0.212,0.190,0.303,0.285,0.272,0.155,0.093,northwest,1.4,Yes
2019/03/04,00:40,0.212,0.190,0.305,0.285,0.274,0.154,0.094,northwest,0.6,No
2019/03/04,00:50,0.211,0.191,0.304,0.284,0.273,0.154,0.093,north-northeast,1.0,Yes
2019/03/04,01:00,0.211,0.190,0.303,0.284,0.272,0.154,0.094,north-northwest,0.7,Yes
2019/03/04,01:10,0.210,0.189,0.304,0.285,0.272,0.154,0.093,north,1.2,Yes
2019/03/04,01:20,0.210,0.189,0.303,0.284,0.271,0.153,0.092,north,1.6,Yes
2019/03/04,01:30,0.211,0.190,0.303,0.284,0.271,0.154,0.093,north-northeast,1.7,Yes
2019/03/04,01:40,0.212,0.189,0.304,0.285,0.272,0.154,0.093,north,1.9,Yes
2019/03/04,01:50,0.210,0.189,0.304,0.285,0.274,0.153,0.093,north-northwest,3.3,Yes
2019/03/04,02:00,0.212,0.188,0.304,0.285,0.273,0.155,0.094,north-northwest,3.7,Yes
2019/03/04,02:10,0.212,0.190,0.304,0.286,0.273,0.154,0.094,north-northwest,5.6,Yes
2019/03/04,02:20,0.213,0.191,0.307,0.286,0.274,0.157,0.096,north-northwest,7.4,Yes
2019/03/04,02:30,0.213,0.191,0.306,0.286,0.275,0.157,0.097,north-northwest,7.4,Yes
2019/03/04,02:40,0.213,0.191,0.306,0.287,0.275,0.157,0.097,north-northwest,7.1,Yes
2019/03/04,02:50,0.213,0.193,0.305,0.288,0.274,0.157,0.097,north-northwest,7.0,Yes
2019/03/04,03:00,0.215,0.193,0.307,0.286,0.275,0.159,0.098,north-northwest,6.8,Yes
2019/03/04,03:10,0.215,0.194,0.308,0.288,0.276,0.160,0.099,north-northwest,7.3,Yes
2019/03/04,03:20,0.215,0.196,0.308,0.287,0.276,0.160,0.100,north-northwest,6.8,Yes
2019/03/04,03:30,0.216,0.195,0.307,0.288,0.278,0.160,0.101,northwest,6.8,Yes
2019/03/04,03:40,0.216,0.196,0.308,0.289,0.276,0.162,0.101,northwest,7.3,Yes
2019/03/04,03:50,0.216,0.194,0.308,0.288,0.277,0.161,0.101,northwest,8.7,Yes
2019/03/04,04:00,0.216,0.196,0.307,0.289,0.277,0.161,0.101,northwest,8.4,Yes
2019/03/04,04:10,0.216,0.196,0.307,0.287,0.277,0.160,0.100,north-northwest,8.6,Yes
2019/03/04,04:20,0.216,0.195,0.308,0.287,0.277,0.159,0.099,north-northwest,9.5,Yes
2019/03/04,04:30,0.215,0.194,0.307,0.288,0.277,0.159,0.099,north-northwest,10.0,Yes
2019/03/04,04:40,0.213,0.193,0.305,0.287,0.275,0.159,0.098,north-northwest,9.8,Yes
2019/03/04,04:50,0.214,0.194,0.306,0.286,0.275,0.157,0.097,north-northwest,10.3,Yes
2019/03/04,05:00,0.214,0.192,0.305,0.285,0.276,0.158,0.097,north-northwest,9.3,Yes
2019/03/04,05:10,0.214,0.192,0.306,0.285,0.276,0.158,0.097,north-northwest,8.5,Yes
2019/03/04,05:20,0.214,0.193,0.305,0.286,0.275,0.159,0.098,north-northwest,9.5,Yes
2019/03/04,05:30,0.214,0.194,0.305,0.285,0.276,0.158,0.099,north-northwest,8.1,Yes
2019/03/04,05:40,0.214,0.194,0.307,0.286,0.276,0.159,0.100,north-northwest,9.2,Yes
2019/03/04,05:50,0.215,0.195,0.306,0.287,0.276,0.160,0.101,north-northwest,9.8,Yes
2019/03/04,06:00,0.214,0.195,0.305,0.287,0.277,0.159,0.100,north-northwest,10.0,Yes
2019/03/04,06:10,0.215,0.196,0.307,0.286,0.278,0.160,0.100,north-northwest,10.0,Yes
2019/03/04,06:20,0.214,0.194,0.307,0.285,0.277,0.160,0.099,north-northwest,9.2,Yes
2019/03/04,06:30,0.216,0.196,0.305,0.287,0.277,0.160,0.099,northwest,10.1,Yes
2019/03/04,06:40,0.214,0.195,0.305,0.287,0.277,0.160,0.100,north-northwest,10.1,Yes
2019/03/04,06:50,0.213,0.194,0.306,0.286,0.277,0.159,0.101,northwest,10.6,Yes
2019/03/04,07:00,0.214,0.195,0.305,0.285,0.276,0.160,0.100,north-northwest,10.1,Yes
2019/03/04,07:10,0.215,0.194,0.306,0.285,0.275,0.160,0.101,north-northwest,10.1,Yes
2019/03/04,07:20,0.214,0.195,0.304,0.285,0.276,0.159,0.100,north-northwest,9.5,Yes
2019/03/04,07:30,0.214,0.195,0.304,0.284,0.277,0.158,0.100,northwest,9.8,Yes
2019/03/04,07:40,0.213,0.194,0.305,0.283,0.275,0.159,0.099,north-northwest,9.8,Yes
2019/03/04,07:50,0.213,0.194,0.303,0.284,0.276,0.159,0.098,north-northwest,11.2,Yes
2019/03/04,08:00,0.211,0.193,0.305,0.285,0.275,0.157,0.098,north-northwest,9.8,Yes
2019/03/04,08:10,0.211,0.192,0.304,0.282,0.274,0.156,0.097,north-northwest,10.0,Yes
2019/03/04,08:20,0.210,0.191,0.304,0.282,0.274,0.155,0.096,north-northwest,10.0,Yes
2019/03/04,08:30,0.209,0.190,0.302,0.281,0.274,0.155,0.095,north-northwest,11.2,Yes
2019/03/04,08:40,0.209,0.190,0.301,0.282,0.275,0.154,0.094,north-northwest,10.6,Yes
2019/03/04,08:50,0.210,0.190,0.302,0.282,0.273,0.154,0.096,north-northwest,9.5,Yes
2019/03/04,09:00,0.209,0.190,0.302,0.282,0.272,0.155,0.095,north-northwest,10.9,Yes
2019/03/04,09:10,0.211,0.192,0.301,0.282,0.273,0.155,0.097,north-northwest,9.6,Yes
2019/03/04,09:20,0.210,0.191,0.302,0.282,0.275,0.154,0.096,north-northwest,8.6,Yes
2019/03/04,09:30,0.210,0.191,0.301,0.281,0.275,0.155,0.098,north-northwest,9.2,Yes
2019/03/04,09:40,0.211,0.192,0.302,0.281,0.274,0.156,0.098,north-northwest,10.1,Yes
2019/03/04,09:50,0.209,0.191,0.302,0.283,0.274,0.156,0.098,north-northwest,9.3,Yes
2019/03/04,10:00,0.209,0.193,0.302,0.281,0.274,0.156,0.097,northwest,10.3,Yes
2019/03/04,10:10,0.209,0.192,0.301,0.281,0.274,0.155,0.099,north-northwest,10.7,Yes
2019/03/04,10:20,0.209,0.192,0.302,0.280,0.274,0.156,0.098,north-northwest,10.3,Yes
2019/03/04,10:30,0.210,0.191,0.301,0.281,0.275,0.156,0.098,north-northwest,10.6,Yes
2019/03/04,10:40,0.209,0.191,0.303,0.282,0.275,0.156,0.099,north-northwest,10.7,Yes
2019/03/04,10:50,0.210,0.192,0.302,0.281,0.275,0.156,0.098,north-northwest,11.5,Yes
2019/03/04,11:00,0.209,0.192,0.303,0.283,0.275,0.157,0.100,north-northwest,12.3,Yes
2019/03/04,11:10,0.211,0.193,0.303,0.283,0.275,0.157,0.100,northwest,11.1,Yes
2019/03/04,11:20,0.212,0.195,0.304,0.283,0.276,0.160,0.102,north-northwest,10.1,Yes
2019/03/04,11:30,0.214,0.196,0.304,0.283,0.277,0.161,0.102,north-northwest,12.8,Yes
2019/03/04,11:40,0.214,0.195,0.303,0.285,0.278,0.159,0.103,north-northwest,11.7,Yes
2019/03/04,11:50,0.213,0.195,0.304,0.284,0.279,0.160,0.101,north-northwest,10.9,Yes
2019/03/04,12:00,0.214,0.194,0.305,0.284,0.279,0.158,0.101,north-northwest,11.8,Yes
2019/03/04,12:10,0.212,0.194,0.302,0.283,0.278,0.159,0.101,north-northwest,11.7,Yes
2019/03/04,12:20,0.212,0.195,0.303,0.284,0.277,0.158,0.100,north-northwest,11.5,Yes
2019/03/04,12:30,0.213,0.194,0.304,0.283,0.277,0.157,0.100,north-northwest,10.3,Yes
2019/03/04,12:40,0.212,0.194,0.303,0.282,0.277,0.157,0.101,north-northwest,10.3,Yes
2019/03/04,12:50,0.213,0.193,0.303,0.282,0.277,0.158,0.101,northwest,10.9,Yes
2019/03/04,13:00,0.213,0.192,0.303,0.282,0.277,0.156,0.100,northwest,10.0,Yes
2019/03/04,13:10,0.212,0.194,0.301,0.282,0.276,0.156,0.100,north-northwest,10.7,Yes
2019/03/04,13:20,0.212,0.194,0.302,0.282,0.277,0.156,0.100,north-northwest,11.7,Yes
2019/03/04,13:30,0.213,0.192,0.302,0.281,0.276,0.157,0.100,north-northwest,12.6,Yes
2019/03/04,13:40,0.213,0.192,0.300,0.280,0.276,0.155,0.100,north-northwest,12.0,Yes
2019/03/04,13:50,0.210,0.190,0.300,0.281,0.275,0.155,0.099,north-northwest,11.2,Yes
2019/03/04,14:00,0.210,0.193,0.302,0.281,0.275,0.155,0.099,north-northwest,12.6,Yes
2019/03/04,14:10,0.210,0.193,0.300,0.280,0.276,0.156,0.098,north-northwest,12.2,Yes
2019/03/04,14:20,0.210,0.191,0.301,0.282,0.273,0.155,0.099,north-northwest,11.5,Yes
2019/03/04,14:30,0.210,0.191,0.301,0.280,0.274,0.155,0.098,north-northwest,11.5,Yes
2019/03/04,14:40,0.209,0.191,0.301,0.281,0.274,0.154,0.098,north-northwest,11.7,Yes
2019/03/04,14:50,0.210,0.190,0.299,0.280,0.274,0.153,0.098,north-northwest,12.3,Yes
2019/03/04,15:00,0.210,0.191,0.300,0.279,0.274,0.155,0.098,north-northwest,12.3,Yes
2019/03/04,15:10,0.209,0.192,0.300,0.280,0.273,0.154,0.098,north-northwest,13.4,Yes
2019/03/04,15:20,0.209,0.191,0.299,0.279,0.273,0.153,0.098,northwest,11.5,Yes
2019/03/04,15:30,0.209,0.190,0.298,0.278,0.274,0.153,0.098,northwest,11.2,Yes
2019/03/04,15:40,0.207,0.190,0.299,0.278,0.273,0.152,0.096,north-northwest,11.5,Yes
2019/03/04,15:50,0.209,0.189,0.299,0.279,0.273,0.152,0.097,north-northwest,11.1,Yes
2019/03/04,16:00,0.208,0.189,0.300,0.280,0.272,0.153,0.096,north-northwest,12.8,Yes
2019/03/04,16:10,0.208,0.188,0.300,0.279,0.272,0.152,0.096,north-northwest,11.5,Yes
2019/03/04,16:20,0.208,0.189,0.299,0.277,0.272,0.152,0.096,north-northwest,12.6,Yes
2019/03/04,16:30,0.208,0.188,0.299,0.279,0.272,0.151,0.097,north-northwest,12.2,Yes
2019/03/04,16:40,0.207,0.188,0.299,0.278,0.272,0.151,0.095,north-northwest,11.2,Yes
2019/03/04,16:50,0.208,0.188,0.299,0.278,0.272,0.151,0.095,northwest,11.5,Yes
2019/03/04,17:00,0.207,0.187,0.298,0.278,0.272,0.151,0.095,northwest,10.9,Yes
2019/03/04,17:10,0.207,0.188,0.300,0.277,0.272,0.151,0.094,north-northwest,12.0,Yes
2019/03/04,17:20,0.207,0.188,0.298,0.279,0.271,0.150,0.095,northwest,11.2,Yes
2019/03/04,17:30,0.206,0.188,0.300,0.279,0.271,0.151,0.095,north-northwest,12.5,Yes
2019/03/04,17:40,0.207,0.188,0.300,0.278,0.271,0.151,0.095,north-northwest,11.7,Yes
2019/03/04,17:50,0.206,0.188,0.297,0.276,0.271,0.150,0.096,north-northwest,11.2,Yes
2019/03/04,18:00,0.207,0.189,0.298,0.277,0.270,0.151,0.095,north-northwest,12.6,Yes
2019/03/04,18:10,0.207,0.188,0.298,0.277,0.270,0.151,0.096,north-northwest,12.0,Yes
2019/03/04,18:20,0.207,0.188,0.298,0.276,0.270,0.152,0.095,north-northwest,12.6,Yes
2019/03/04,18:30,0.207,0.188,0.299,0.277,0.272,0.150,0.095,north-northwest,12.3,Yes
2019/03/04,18:40,0.207,0.187,0.299,0.276,0.273,0.151,0.096,north-northwest,9.5,Yes
2019/03/04,18:50,0.207,0.188,0.297,0.277,0.271,0.151,0.095,north-northwest,10.7,Yes
2019/03/04,19:00,0.206,0.188,0.299,0.276,0.271,0.150,0.094,north-northwest,10.0,Yes
2019/03/04,19:10,0.206,0.187,0.298,0.277,0.271,0.149,0.094,north-northwest,10.1,No
2019/03/04,19:20,0.205,0.186,0.297,0.276,0.270,0.149,0.093,north-northwest,10.7,No
2019/03/04,19:30,0.206,0.186,0.297,0.277,0.271,0.148,0.093,north-northwest,12.3,No
2019/03/04,19:40,0.204,0.185,0.297,0.277,0.270,0.147,0.092,north-northwest,11.7,No
2019/03/04,19:50,0.203,0.185,0.296,0.277,0.269,0.147,0.092,north-northwest,11.7,No
2019/03/04,20:00,0.204,0.185,0.297,0.276,0.270,0.148,0.092,north-northwest,11.5,No
2019/03/04,20:10,0.204,0.184,0.295,0.277,0.270,0.147,0.091,north-northwest,11.5,No
2019/03/04,20:20,0.204,0.185,0.296,0.277,0.269,0.147,0.091,north-northwest,11.2,No
2019/03/04,20:30,0.203,0.184,0.296,0.277,0.270,0.147,0.092,north-northwest,10.9,No
2019/03/04,20:40,0.203,0.184,0.296,0.277,0.270,0.147,0.092,north-northwest,10.1,No
2019/03/04,20:50,0.204,0.185,0.297,0.276,0.269,0.148,0.091,north-northwest,10.1,No
2019/03/04,21:00,0.204,0.185,0.297,0.278,0.269,0.147,0.092,north-northwest,10.9,No
2019/03/04,21:10,0.203,0.185,0.297,0.277,0.269,0.147,0.092,north-northwest,10.7,No
2019/03/04,21:20,0.205,0.184,0.299,0.277,0.271,0.147,0.092,north-northwest,9.6,No
2019/03/04,21:30,0.204,0.184,0.296,0.276,0.270,0.148,0.091,north-northwest,9.5,No
2019/03/04,21:40,0.204,0.184,0.297,0.277,0.269,0.147,0.091,north-northwest,9.3,No
2019/03/04,21:50,0.205,0.186,0.296,0.277,0.270,0.148,0.090,north-northwest,8.1,No
2019/03/04,22:00,0.204,0.185,0.298,0.277,0.271,0.149,0.091,north-northwest,9.2,No
2019/03/04,22:10,0.204,0.185,0.297,0.277,0.270,0.148,0.091,north-northwest,8.7,No
2019/03/04,22:20,0.205,0.184,0.297,0.278,0.269,0.148,0.092,north,8.4,No
2019/03/04,22:30,0.204,0.183,0.296,0.278,0.271,0.148,0.091,north-northwest,9.2,No
2019/03/04,22:40,0.204,0.183,0.298,0.278,0.270,0.148,0.091,north-northwest,9.5,No
2019/03/04,22:50,0.204,0.184,0.298,0.278,0.270,0.148,0.090,north-northwest,9.0,No
2019/03/04,23:00,0.206,0.185,0.297,0.278,0.270,0.148,0.091,north-northwest,10.0,No
2019/03/04,23:10,0.206,0.185,0.298,0.277,0.270,0.148,0.091,north-northwest,8.7,No
2019/03/04,23:20,0.206,0.185,0.298,0.277,0.270,0.150,0.091,north-northwest,8.4,No
2019/03/04,23:30,0.205,0.186,0.298,0.278,0.271,0.148,0.091,north-northwest,7.8,No
2019/03/04,23:40,0.205,0.185,0.298,0.279,0.271,0.148,0.091,north-northwest,8.8,No
2019/03/04,23:50,0.204,0.185,0.298,0.278,0.271,0.148,0.091,north-northwest,8.1,No
